ZHONGXING-2C

Last updated on Tue Oct 08 2024 00:02:40 GMT+0000 (Coordinated Universal Time)

1 41021U 15063A 24281.53147527 -.00000313 00000+0 00000+0 0 9990 2 41021 0.0823 70.3615 0005106 118.9655 122.1311 1.00268825 32808
UTC large
Height (km)
Speed (km/s)
/
Latitude / Longitude
Inclination (degrees)
Orbital Period (minutes)
Azimuth
Elevation
Range (km)
Doppler Factor

Next 0 passes for location: London (51.5072 / 0.1276)

Sorry there are no passes over London.